Location: Eaton Estates
(41.3089°N, 82.0057°W)
Time: 11:39:03
(UTC+00:00)

SL-4 R/B - Pass Details

Date: 17 June 2021
Orbit: 428 x 662 km, 51.6° (Epoch: 26 July)

Event Time Altitude Azimuth Distance (km) Brightness Sun altitude
Exits shadow 06:27:25 15° 294° (WNW) 1,409 4.2 -23.9°
Maximum altitude 06:29:39 24° 340° (NNW) 1,025 3.9 -23.8°
Drops below altitude 10° 06:32:42 10° 37° (NE) 1,615 5.3 -23.6°
Sets 06:35:03 0° 52° (NE) 2,459 6.2 -23.5°
